sat.trackr.live / text

‹ back to catalog

KAKUSHIN RISING OBJECT C

NORAD 68794 · 2026-088C

PAYLOAD ACTIVE UNKNOWN

§ Identity

Operator
Country
JPN
Launch date
2026-04-23
Launch site
RLLB
Launch vehicle
Mass (kg)
RCS (m²)

External: N2YO · Heavens-Above · Gunter

§ Orbital elements

Epoch: 2026-09-19T09:18:29.263680Z

Period
95.50 min
Inclination
97.5199°
Eccentricity
0.0013975
Mean motion
15.07835133 rev/d
Perigee alt
533.1 km
Apogee alt
552.5 km
Semi-major
6,921.0 km
B*
1.3968e-4
RAAN
49.4996°
Arg perigee
130.1819°
Mean anomaly
230.0635°
Rev number
2,248

§ Raw data

KAKUSHIN RISING OBJECT C1 68794U 26088C   26262.38783870  .00002081  00000+0  13968-3 0  99902 68794  97.5199  49.4996 0013975 130.1819 230.0635 15.07835133 22486

JSON: /api/v1/satellites/68794 · /tle

For live sub-satellite position, see the globe view (requires WebGL).

§ Visibility from observer

Set your observer location to see the next 7 days of passes ≥ 10°. The values pass through the URL so the page stays shareable.

No JS? Fill the form by hand. The geolocation button needs JavaScript.